When you browse on this site, cookies collect data to enhance your experience and personalize the content and advertising you see.
Visit our Privacy Policy to learn more. By continuing to use the site, you agree to this use of cookies and data.
  • In Romania
  • List of Countries
  • For 7 days
  • Water Temperature
  • Weather Map
  • Weather Widgets
  • user-avatar
    Login

    Hourly Weather Hajfa

    Today, 3 June, Wednesday

    Time Temperature Precipitation Wind Pressure Humidity
    00:00 +20°C° 0 mm 3 mps 754 mmHg 80%
    01:00 +20°C° 0 mm 2 mps 754 mmHg 80%
    02:00 +20°C° 0 mm 2 mps 754 mmHg 80%
    03:00 +20°C° 0 mm 2 mps 754 mmHg 80%
    04:00 +20°C° 0 mm 1 mps 754 mmHg 80%
    05:00 +20°C° 0 mm 1 mps 754 mmHg 79%
    06:00 +22°C° 0 mm 1 mps 755 mmHg 72%
    07:00 +23°C° 0 mm 2 mps 755 mmHg 65%
    08:00 +24°C° 0 mm 2 mps 755 mmHg 57%
    09:00 +25°C° 0 mm 3 mps 755 mmHg 55%
    10:00 +26°C° 0 mm 4 mps 755 mmHg 52%
    11:00 +27°C° 0 mm 5 mps 756 mmHg 49%
    12:00 +27°C° 0 mm 4 mps 755 mmHg 49%
    13:00 +26°C° 0 mm 4 mps 755 mmHg 50%
    14:00 +26°C° 0 mm 4 mps 755 mmHg 50%
    15:00 +26°C° 0 mm 3 mps 755 mmHg 52%
    16:00 +25°C° 0 mm 3 mps 755 mmHg 54%
    17:00 +25°C° 0 mm 3 mps 755 mmHg 56%
    18:00 +23°C° 0 mm 2 mps 755 mmHg 61%
    19:00 +21°C° 0 mm 2 mps 755 mmHg 66%
    20:00 +21°C° 0 mm 1 mps 755 mmHg 72%
    21:00 +21°C° 0 mm 1 mps 755 mmHg 72%
    22:00 +20°C° 0 mm 1 mps 755 mmHg 72%
    23:00 +20°C° 0 mm 1 mps 755 mmHg 73%

    Tomorrow, 4 June, Thursday

    Time Temperature Precipitation Wind Pressure Humidity
    00:00 +20°C° 0 mm 1 mps 755 mmHg 70%
    01:00 +20°C° 0 mm 1 mps 755 mmHg 68%
    02:00 +19°C° 0 mm 2 mps 754 mmHg 66%
    03:00 +19°C° 0 mm 2 mps 755 mmHg 63%
    04:00 +20°C° 0 mm 1 mps 755 mmHg 60%
    05:00 +20°C° 0 mm 1 mps 755 mmHg 57%
    06:00 +22°C° 0 mm 1 mps 755 mmHg 48%
    07:00 +25°C° 0 mm 1 mps 755 mmHg 39%
    08:00 +28°C° 0 mm 1 mps 756 mmHg 30%
    09:00 +28°C° 0 mm 2 mps 756 mmHg 31%
    10:00 +29°C° 0 mm 3 mps 756 mmHg 33%
    11:00 +30°C° 0 mm 5 mps 756 mmHg 34%
    12:00 +29°C° 0 mm 5 mps 756 mmHg 38%
    13:00 +29°C° 0 mm 6 mps 755 mmHg 42%
    14:00 +29°C° 0 mm 7 mps 755 mmHg 45%
    15:00 +28°C° 0 mm 7 mps 755 mmHg 48%
    16:00 +27°C° 0 mm 7 mps 755 mmHg 51%
    17:00 +27°C° 0 mm 7 mps 755 mmHg 54%
    18:00 +24°C° 0 mm 6 mps 755 mmHg 59%
    19:00 +23°C° 0 mm 6 mps 756 mmHg 63%
    20:00 +22°C° 0 mm 6 mps 756 mmHg 67%
    21:00 +22°C° 0 mm 5 mps 756 mmHg 68%
    22:00 +22°C° 0 mm 5 mps 756 mmHg 69%
    23:00 +21°C° 0 mm 5 mps 757 mmHg 70%

    Day after tomorrow, 5 June, Friday

    Time Temperature Precipitation Wind Pressure Humidity
    00:00 +21°C° 0 mm 5 mps 756 mmHg 72%
    01:00 +21°C° 0 mm 4 mps 756 mmHg 74%
    02:00 +21°C° 0 mm 4 mps 756 mmHg 76%
    03:00 +20°C° 0 mm 4 mps 756 mmHg 77%
    04:00 +20°C° 0 mm 4 mps 756 mmHg 78%
    05:00 +20°C° 0 mm 4 mps 757 mmHg 79%
    06:00 +22°C° 0 mm 4 mps 757 mmHg 71%
    07:00 +25°C° 0 mm 4 mps 757 mmHg 63%
    08:00 +27°C° 0 mm 4 mps 757 mmHg 55%
    09:00 +28°C° 0 mm 5 mps 757 mmHg 53%
    10:00 +28°C° 0 mm 5 mps 757 mmHg 52%
    11:00 +29°C° 0 mm 6 mps 757 mmHg 50%
    12:00 +29°C° 0 mm 7 mps 757 mmHg 49%
    13:00 +29°C° 0 mm 7 mps 756 mmHg 48%
    14:00 +29°C° 0 mm 8 mps 756 mmHg 46%
    15:00 +29°C° 0 mm 8 mps 755 mmHg 47%
    16:00 +28°C° 0 mm 8 mps 755 mmHg 47%
    17:00 +28°C° 0 mm 8 mps 755 mmHg 48%
    18:00 +26°C° 0 mm 7 mps 755 mmHg 53%
    19:00 +24°C° 0 mm 7 mps 755 mmHg 58%
    20:00 +23°C° 0 mm 6 mps 756 mmHg 63%
    21:00 +23°C° 0 mm 6 mps 756 mmHg 65%
    22:00 +22°C° 0 mm 6 mps 756 mmHg 67%
    23:00 +22°C° 0 mm 5 mps 756 mmHg 69%

    6 June, Saturday

    Time Temperature Precipitation Wind Pressure Humidity
    00:00 +22°C° 0 mm 5 mps 755 mmHg 71%
    01:00 +22°C° 0 mm 5 mps 755 mmHg 73%
    02:00 +21°C° 0 mm 4 mps 755 mmHg 75%
    03:00 +21°C° 0 mm 4 mps 755 mmHg 77%
    04:00 +21°C° 0 mm 4 mps 755 mmHg 79%
    05:00 +21°C° 0 mm 4 mps 755 mmHg 81%
    06:00 +22°C° 0 mm 4 mps 755 mmHg 74%
    07:00 +25°C° 0 mm 4 mps 756 mmHg 66%
    08:00 +27°C° 0 mm 4 mps 756 mmHg 59%
    09:00 +28°C° 0 mm 4 mps 756 mmHg 57%
    10:00 +29°C° 0 mm 5 mps 756 mmHg 55%
    11:00 +29°C° 0 mm 5 mps 756 mmHg 53%
    12:00 +29°C° 0 mm 6 mps 755 mmHg 53%
    13:00 +29°C° 0 mm 6 mps 755 mmHg 53%
    14:00 +29°C° 0 mm 7 mps 754 mmHg 53%
    15:00 +29°C° 0 mm 6 mps 754 mmHg 54%
    16:00 +28°C° 0 mm 6 mps 754 mmHg 55%
    17:00 +28°C° 0 mm 5 mps 754 mmHg 56%
    18:00 +26°C° 0 mm 5 mps 754 mmHg 61%
    19:00 +25°C° 0 mm 5 mps 754 mmHg 65%
    20:00 +23°C° 0 mm 4 mps 754 mmHg 70%
    21:00 +23°C° 0 mm 4 mps 754 mmHg 73%
    22:00 +22°C° 0 mm 3 mps 754 mmHg 76%
    23:00 +22°C° 0 mm 3 mps 754 mmHg 79%

    7 June, Sunday

    Time Temperature Precipitation Wind Pressure Humidity
    00:00 +21°C° 0 mm 2 mps 754 mmHg 80%
    01:00 +21°C° 0 mm 2 mps 754 mmHg 81%
    02:00 +22°C° 0 mm 1 mps 754 mmHg 82%
    03:00 +22°C° 0 mm 1 mps 754 mmHg 81%
    04:00 +22°C° 0 mm 1 mps 754 mmHg 81%
    05:00 +21°C° 0 mm 1 mps 754 mmHg 80%
    06:00 +24°C° 0 mm 1 mps 754 mmHg 71%
    07:00 +26°C° 0 mm 1 mps 754 mmHg 62%
    08:00 +28°C° 0 mm 1 mps 754 mmHg 53%
    09:00 +29°C° 0 mm 2 mps 754 mmHg 51%
    10:00 +30°C° 0 mm 2 mps 754 mmHg 50%
    11:00 +30°C° 0 mm 3 mps 754 mmHg 48%
    12:00 +32°C° 0 mm 4 mps 754 mmHg 47%
    13:00 +32°C° 0 mm 4 mps 754 mmHg 46%
    14:00 +32°C° 0 mm 5 mps 753 mmHg 45%
    15:00 +30°C° 0 mm 4 mps 753 mmHg 47%
    16:00 +30°C° 0 mm 4 mps 753 mmHg 49%
    17:00 +29°C° 0 mm 4 mps 752 mmHg 51%
    18:00 +28°C° 0 mm 4 mps 753 mmHg 56%
    19:00 +26°C° 0 mm 4 mps 753 mmHg 61%
    20:00 +25°C° 0 mm 4 mps 753 mmHg 66%
    21:00 +24°C° 0 mm 3 mps 753 mmHg 67%
    22:00 +24°C° 0 mm 2 mps 753 mmHg 68%
    23:00 +24°C° 0 mm 2 mps 753 mmHg 69%

    8 June, Monday

    Time Temperature Precipitation Wind Pressure Humidity
    00:00 +23°C° 0 mm 1 mps 753 mmHg 70%
    01:00 +23°C° 0 mm 1 mps 753 mmHg 71%
    02:00 +21°C° 0 mm 0 mps 752 mmHg 72%
    03:00 +22°C° 0 mm 1 mps 752 mmHg 71%
    04:00 +22°C° 0 mm 1 mps 753 mmHg 71%
    05:00 +21°C° 0 mm 2 mps 753 mmHg 70%
    06:00 +24°C° 0 mm 2 mps 753 mmHg 63%
    07:00 +26°C° 0 mm 2 mps 753 mmHg 55%
    08:00 +29°C° 0 mm 3 mps 753 mmHg 47%
    09:00 +29°C° 0 mm 3 mps 753 mmHg 45%
    10:00 +30°C° 0 mm 3 mps 753 mmHg 43%
    11:00 +31°C° 0 mm 3 mps 753 mmHg 41%
    12:00 +32°C° 0 mm 4 mps 753 mmHg 41%
    13:00 +32°C° 0 mm 4 mps 752 mmHg 41%
    14:00 +32°C° 0 mm 4 mps 752 mmHg 41%
    15:00 +30°C° 0 mm 4 mps 752 mmHg 44%
    16:00 +30°C° 0 mm 4 mps 752 mmHg 47%
    17:00 +29°C° 0 mm 3 mps 752 mmHg 50%
    18:00 +27°C° 0 mm 3 mps 752 mmHg 57%
    19:00 +26°C° 0 mm 2 mps 752 mmHg 63%
    20:00 +24°C° 0 mm 2 mps 752 mmHg 70%
    21:00 +24°C° 0 mm 2 mps 752 mmHg 70%
    22:00 +24°C° 0 mm 2 mps 752 mmHg 71%
    23:00 +23°C° 0 mm 2 mps 752 mmHg 71%
    Show more